Temp
9 9 9 9 9 9 9 9 9 9 9 9 9 9 9 9 10 10 10 10 10 10 10 10 10 10 10 10 10 10 10 10 10 10 10 14 15 14 14 15 16 16 15 15 14 14 16 18 20 20 19 20 21 21 22 24 25 25 24 23 22 23 24 25 27 26 26 26 25 25 25 24 23 22 22 21 20 20 20 19 19 19 19 19 19 19 18 18
9 9 9 9 9 9 9 9 9 9 9 9 9 9 9 9 9 10 10 10 10 10 10 10 10 10 10 10 10 10 10 10 10 10 12 17 17 14 14 15 16 15 14 14 14 15 16 19 20 20 19 20 21 22 23 24 25 25 24 23 23 24 25 27 27 27 27 25 25 24 24 24 23 23 23 21 20 20 20 19 19 19 19 19 18 19 18 18
8 9 9 9 9 9 9 9 9 9 9 9 9 9 9 9 9 9 9 9 9 10 10 10 10 10 10 10 10 10 10 10 10 12 17 19 17 16 16 16 16 16 15 14 15 16 17 19 20 20 19 20 22 23 24 25 25 25 24 23 24 25 25 27 27 27 27 25 24 24 24 24 24 23 22 21 20 20 20 19 19 19 19 19 18 18 18 18
8 9 9 9 9 9 9 9 9 9 9 9 9 9 9 9 9 9 9 10 9 10 10 10 10 10 10 10 10 10 10 11 12 15 19 19 18 18 18 17 16 16 15 15 16 17 18 19 19 19 19 20 23 24 24 25 25 25 25 24 26 25 24 27 28 27 26 25 24 24 24 24 24 23 22 21 21 20 19 20 20 19 19 19 18 18 18 18
9 9 9 9 9 9 9 9 9 9 9 9 9 9 9 9 9 9 9 10 9 10 10 10 10 10 10 10 10 10 10 14 17 18 19 19 19 20 19 17 16 16 15 15 16 17 18 19 19 19 20 22 23 24 24 24 25 25 25 25 26 26 25 27 27 27 26 25 24 24 24 24 23 22 21 23 24 21 19 20 20 19 19 19 18 18 18 18
10 9 8 8 9 9 9 9 9 9 9 9 9 9 9 9 9 9 9 9 9 10 10 10 10 10 10 10 11 10 11 15 18 18 19 19 20 20 18 17 16 16 16 15 16 18 19 19 20 20 21 23 23 24 23 23 24 25 24 24 25 25 26 27 27 27 26 25 24 24 24 23 22 22 21 23 23 22 20 20 20 19 19 19 19 18 18 18
12 9 8 8 9 9 9 9 9 9 9 9 9 9 9 9 9 9 9 9 9 9 10 10 10 10 10 10 11 11 11 14 17 18 18 18 19 19 18 17 16 16 16 16 17 18 19 19 20 21 22 23 23 24 23 23 24 24 23 24 24 25 26 27 27 26 26 25 24 24 23 23 23 22 21 21 21 21 20 20 19 19 19 19 19 18 18 18
13 9 8 8 8 9 9 9 9 9 9 9 9 9 9 9 9 9 9 9 9 9 10 10 10 10 10 10 11 11 11 13 17 18 17 18 19 18 17 16 16 16 16 17 18 19 19 20 21 21 22 23 23 24 23 23 24 24 24 23 24 25 26 26 26 25 25 24 23 23 23 22 22 22 21 20 20 20 20 19 19 19 19 19 19 19 19 18
13 10 8 8 8 9 9 8 9 9 9 9 9 9 9 9 9 9 9 9 9 9 10 10 10 10 10 10 11 13 15 17 19 18 18 18 18 18 17 17 16 16 17 17 18 19 20 21 22 22 23 23 23 24 24 23 23 24 23 22 23 23 24 25 24 24 24 23 23 23 21 21 22 22 21 20 20 20 19 19 19 19 19 19 19 19 19 19
14 11 8 8 8 8 8 8 8 9 9 9 9 9 9 9 9 9 9 9 9 9 10 10 10 10 10 11 11 15 19 20 19 19 18 18 18 18 18 18 18 17 18 18 18 19 20 21 22 23 23 23 23 23 23 23 24 24 23 22 22 22 22 22 22 23 23 23 23 22 21 22 23 22 21 19 20 20 19 19 19 19 19 19 19 19 19 18
15 12 9 8 8 8 8 8 8 9 9 9 9 9 9 9 9 9 10 11 10 9 10 10 10 10 10 11 11 17 21 20 20 20 19 18 18 18 18 19 19 18 19 19 19 20 20 21 22 23 23 23 22 22 23 24 24 24 23 23 21 22 23 23 22 22 23 23 22 23 23 23 23 22 20 20 20 20 19 19 19 19 19 19 19 19 18 18
16 13 10 8 8 8 8 8 8 8 9 9 9 9 9 9 9 9 10 11 11 10 10 10 10 10 10 11 12 18 22 21 21 20 20 20 20 20 20 20 20 20 20 19 20 21 22 22 23 24 24 23 22 23 24 24 23 23 23 23 21 22 23 23 23 22 23 23 22 24 23 23 23 22 20 20 20 20 20 19 19 19 19 19 19 19 19 18
16 14 11 9 8 8 8 8 8 8 9 9 10 9 10 10 10 10 10 11 12 11 10 10 11 10 10 14 17 20 22 21 21 21 21 21 21 21 21 21 21 21 21 20 22 23 23 23 24 24 24 24 23 23 23 22 23 23 22 22 21 22 22 22 23 23 24 23 23 25 22 22 22 20 20 20 20 20 19 19 19 19 19 19 19 19 18 18
17 15 12 10 9 8 8 8 8 8 8 10 10 10 10 11 11 11 11 11 12 12 11 10 11 10 11 17 21 22 22 22 22 22 22 22 22 22 22 22 21 21 21 21 23 24 24 23 24 24 24 25 24 22 22 21 21 22 22 21 20 21 21 22 22 23 24 23 24 25 22 21 21 20 20 20 20 20 20 19 19 19 19 19 19 19 18 18
17 16 13 11 10 9 8 9 9 9 9 10 11 11 11 11 11 11 11 12 12 12 12 11 12 11 13 18 22 22 23 23 22 23 23 23 22 22 23 23 22 22 22 22 23 24 24 24 24 24 24 25 24 21 20 19 20 20 21 20 19 20 21 22 22 22 23 23 24 25 22 21 20 20 20 20 20 20 20 20 20 19 19 19 19 19 19 18
16 16 14 12 11 10 9 9 10 10 10 11 13 13 13 12 12 12 12 12 12 12 12 12 12 12 15 20 22 22 23 23 23 24 24 23 23 23 23 24 23 24 24 24 25 25 24 24 23 24 24 24 23 21 19 19 20 20 20 20 19 20 20 21 21 21 22 23 24 24 22 20 20 20 20 20 20 20 20 20 20 20 19 19 19 19 19 18
16 16 14 13 12 11 10 10 11 11 12 13 14 14 13 12 12 12 12 12 12 12 12 12 12 12 17 21 22 22 23 23 24 24 24 24 24 24 24 24 23 24 25 25 26 25 24 23 23 23 23 23 22 22 21 20 20 19 19 20 20 20 20 20 21 22 23 23 24 24 22 21 21 21 20 20 20 20 20 20 20 20 19 19 19 19 19 19
16 16 15 14 13 12 11 11 11 12 13 14 14 14 14 12 12 12 13 13 12 12 12 12 12 15 19 21 22 22 23 24 24 24 24 24 24 24 24 24 24 24 24 24 25 24 23 23 23 23 23 22 22 23 22 20 20 20 20 20 20 20 20 20 21 22 22 22 23 23 23 22 21 20 20 20 20 20 20 20 20 20 20 20 19 19 19 19
16 16 16 15 15 14 13 12 12 12 13 15 15 13 14 13 13 13 12 12 14 17 18 17 16 19 20 21 22 23 23 24 24 24 25 25 25 25 25 25 24 24 24 23 23 23 23 23 23 23 22 21 22 23 23 22 22 21 20 20 20 20 21 21 21 20 21 22 23 23 23 21 20 20 21 20 20 20 20 20 20 20 20 20 19 19 19 19
16 16 16 16 16 15 14 13 13 12 13 15 14 14 16 17 17 17 14 13 15 19 21 20 18 20 20 21 23 23 24 24 24 24 25 25 25 25 25 24 24 24 23 22 22 22 23 23 22 22 21 21 22 22 22 22 22 21 20 20 20 20 21 21 21 20 20 21 22 23 22 21 20 20 21 21 21 20 20 20 20 20 20 20 20 19 19 19
16 16 16 17 16 15 15 15 14 13 12 13 13 15 20 20 20 21 19 18 17 17 19 21 20 20 21 22 23 24 24 24 24 25 25 25 25 24 23 23 23 23 22 22 22 23 23 22 22 22 22 22 22 22 22 21 21 21 20 20 20 20 21 21 21 20 20 21 22 23 22 21 20 21 21 21 20 21 21 20 20 20 20 20 20 19 19 19
16 16 16 17 17 16 16 16 15 14 13 12 12 14 19 21 21 22 21 21 21 19 20 21 21 21 23 23 23 24 24 23 24 24 25 25 24 23 23 23 22 22 22 23 22 22 22 22 22 22 22 22 22 22 22 21 21 20 20 20 20 20 21 21 21 21 21 21 22 22 22 22 21 21 21 21 21 21 21 20 20 20 20 20 20 19 19 19
16 16 17 17 17 17 16 16 16 15 14 13 12 14 19 22 23 22 21 21 21 22 22 22 22 22 23 23 24 24 23 23 23 24 25 25 24 23 23 22 22 22 22 22 22 21 21 22 22 21 22 22 22 22 22 21 20 20 21 20 20 20 20 21 21 20 21 21 21 21 22 22 22 22 21 21 21 21 21 21 21 21 21 20 20 20 19 19
16 16 16 17 17 17 16 16 16 15 15 13 14 17 22 23 22 22 22 21 21 22 23 23 23 24 23 24 25 24 23 24 24 24 25 24 24 24 23 23 22 22 22 22 22 21 21 22 21 21 22 22 22 22 22 22 21 20 21 20 20 20 20 20 20 20 21 21 21 21 21 22 23 22 21 21 21 22 21 21 21 21 21 21 20 20 20 19
17 16 17 17 17 17 17 16 15 15 14 13 17 22 23 23 22 22 22 21 21 23 24 24 24 24 25 25 25 25 24 24 24 25 25 24 24 24 23 23 23 22 22 22 21 21 21 22 21 21 21 21 22 22 22 23 21 20 21 21 21 20 20 20 20 20 20 20 21 21 20 20 22 22 21 21 21 21 22 21 21 21 21 21 20 20 20 19
16 16 17 16 17 18 17 16 15 14 14 16 21 23 23 23 22 22 22 20 21 22 24 24 23 24 25 25 25 25 24 24 25 25 25 25 25 24 23 23 23 22 21 21 21 20 20 21 21 20 20 21 21 22 21 21 21 20 21 21 20 20 20 20 20 20 20 20 21 21 20 20 21 21 21 21 21 21 22 21 22 22 21 21 20 20 20 19
16 16 17 16 16 16 16 16 16 15 18 21 22 22 22 23 22 22 21 20 20 22 23 23 24 25 25 25 26 25 23 24 25 25 26 26 24 23 23 23 22 21 20 21 20 19 19 20 20 21 21 21 21 21 21 20 20 20 21 22 20 20 20 20 20 20 20 20 20 21 20 20 20 21 22 21 21 21 21 21 22 22 21 21 21 20 20 19
16 16 16 16 15 14 14 15 13 15 20 22 22 22 22 22 22 22 21 19 21 23 23 23 24 25 25 26 26 25 24 24 24 24 26 26 24 22 21 21 21 20 20 20 20 20 21 20 20 21 21 21 21 21 21 21 21 21 22 21 21 21 20 20 20 19 19 20 20 20 20 20 20 21 22 21 21 21 21 21 22 22 22 21 21 20 20 20
15 16 16 16 15 14 13 12 12 15 21 22 21 22 22 22 22 22 20 20 21 23 23 24 25 25 25 25 25 25 25 25 24 24 26 24 23 22 21 22 23 22 22 22 22 22 23 23 22 22 22 22 22 22 22 23 22 22 21 21 20 20 20 19 19 19 19 20 20 20 20 20 20 21 21 21 21 21 21 22 22 22 22 21 21 20 20 20
15 15 16 16 15 14 13 12 15 19 22 21 21 22 22 22 22 20 20 20 21 22 23 24 24 25 25 24 24 25 25 25 25 25 25 24 24 23 23 24 24 24 24 23 23 24 25 25 24 24 23 23 24 23 23 23 22 21 21 20 20 20 19 19 19 19 20 20 20 20 20 20 20 21 21 21 22 22 22 22 22 22 22 22 21 20 20 20
15 15 15 15 14 13 13 15 19 21 21 20 21 22 22 22 21 20 20 21 21 22 23 24 24 25 25 24 24 24 24 24 25 25 24 24 24 24 24 24 24 23 23 23 23 24 25 25 25 25 26 25 25 24 23 23 23 22 21 20 20 19 19 19 19 19 19 20 21 20 20 20 20 21 22 22 23 24 23 22 22 22 23 22 21 21 21 20
16 16 15 16 15 14 15 19 21 20 21 21 21 22 22 21 20 20 20 21 21 22 23 23 24 25 25 25 24 24 24 24 24 24 24 24 23 24 24 23 23 22 21 22 23 23 25 25 26 27 27 27 26 24 22 22 22 22 21 20 20 20 20 20 19 19 19 20 21 21 21 21 20 21 23 23 23 24 23 23 23 23 23 22 22 21 21 21
17 17 17 18 17 16 19 21 20 20 21 20 21 22 21 20 20 20 21 21 21 22 23 23 24 24 24 24 25 25 24 24 24 24 24 24 23 23 24 23 24 23 21 22 22 22 23 25 26 27 26 27 27 24 21 21 22 22 22 21 21 20 20 20 20 20 20 20 21 21 21 21 20 23 25 24 23 24 24 24 24 23 23 23 22 22 21 21
18 18 19 19 19 20 22 21 20 20 19 20 21 22 21 20 20 21 21 22 22 23 23 23 24 24 24 25 25 25 24 24 24 24 24 24 23 23 23 24 24 24 23 22 21 21 21 22 25 26 26 26 27 25 24 23 23 22 22 22 21 21 20 20 20 20 21 20 21 21 21 21 21 23 25 25 24 23 24 24 24 24 24 23 23 22 22 21
19 19 19 19 20 22 22 21 20 19 17 19 22 21 20 20 20 21 22 22 23 23 23 24 24 24 24 25 26 26 25 24 24 24 24 23 22 23 24 24 25 25 23 22 21 22 20 21 25 26 26 26 26 25 25 25 23 22 22 22 22 22 22 21 20 20 20 20 20 21 21 22 23 25 25 24 24 24 24 24 24 24 24 23 23 22 22 21
19 19 19 19 21 22 22 21 20 17 17 21 22 20 21 21 21 22 22 23 23 23 23 23 23 22 22 23 24 25 25 24 25 24 24 23 23 23 24 25 25 25 24 23 22 22 20 21 26 27 26 26 25 25 26 25 23 22 22 22 23 23 23 21 20 20 20 20 21 21 21 22 23 24 25 24 24 24 24 24 25 24 24 23 23 23 22 22
19 18 18 19 22 23 22 22 20 18 19 22 21 21 22 22 23 23 23 24 23 23 23 22 21 21 21 22 23 24 25 24 24 24 23 23 23 24 25 26 26 25 25 25 23 23 22 22 25 27 26 26 26 26 27 26 24 23 22 23 24 24 24 22 21 21 20 20 21 21 21 21 21 22 24 25 25 25 25 25 25 25 24 23 23 23 23 22
18 17 17 19 22 23 22 22 21 19 21 22 21 21 22 23 24 24 24 24 23 23 22 21 21 21 21 21 22 23 24 23 23 24 23 23 23 25 26 27 27 26 26 25 24 24 24 22 24 27 26 27 28 27 25 25 26 25 24 25 24 23 22 21 21 21 21 20 21 21 21 21 21 22 24 25 25 26 25 24 25 24 24 23 23 23 23 23
17 17 20 21 21 23 22 21 21 21 22 21 20 21 23 23 24 24 24 25 23 23 22 21 21 21 21 21 22 23 24 23 23 23 22 22 22 25 26 26 27 27 26 26 25 25 25 22 22 26 27 27 27 26 23 24 25 26 26 26 25 23 22 22 21 21 21 20 20 21 21 21 22 23 25 25 26 26 26 25 24 24 24 24 24 23 23 23
16 19 22 21 20 22 22 21 21 21 21 21 21 22 23 24 24 24 25 26 24 23 23 21 21 21 21 22 23 23 23 23 23 23 23 22 22 24 26 26 26 27 27 26 26 26 25 23 21 24 26 25 25 25 24 24 25 25 25 24 24 24 23 22 22 21 21 21 20 20 20 21 23 25 25 26 26 26 25 25 25 25 25 25 25 24 24 23
16 21 21 20 21 21 21 21 21 21 21 21 22 22 23 24 24 24 25 26 24 24 24 22 21 22 22 23 23 23 23 23 23 23 23 23 23 24 26 26 26 27 27 26 26 26 25 24 22 22 24 23 24 26 27 26 26 25 24 24 24 24 23 22 21 21 21 21 20 21 20 21 24 25 25 26 27 25 24 25 25 25 24 25 25 25 25 24
18 22 21 20 21 21 22 22 21 21 22 22 23 23 24 25 25 24 25 25 24 24 24 23 22 22 23 23 23 23 23 23 23 23 23 23 24 24 25 26 26 27 27 26 26 26 26 25 23 22 23 24 25 27 26 26 27 26 26 25 25 24 23 21 21 21 21 21 20 21 20 22 25 25 24 26 27 25 24 24 25 24 24 25 25 25 25 25
20 21 21 21 22 21 22 22 21 21 22 23 23 24 25 25 25 25 25 24 24 24 23 24 24 23 23 23 23 23 23 22 22 23 23 23 24 25 25 26 26 27 27 26 26 26 26 24 22 22 23 25 26 27 27 27 27 26 25 25 25 25 24 23 22 22 21 20 21 21 20 22 25 24 22 25 26 25 25 25 25 25 24 25 25 25 25 24
19 19 21 21 21 21 21 21 21 22 22 23 23 23 24 25 25 25 25 24 24 25 24 24 24 24 23 23 23 23 22 22 22 23 23 23 24 25 25 26 26 26 26 25 26 26 25 23 22 21 22 22 24 25 25 25 25 25 25 25 25 25 25 24 23 22 21 20 21 21 20 21 24 23 22 24 26 26 26 26 26 26 25 25 24 24 23 23
18 19 21 21 21 21 21 21 21 21 21 22 22 23 24 25 25 25 24 24 24 24 24 23 23 24 23 22 22 22 22 22 22 23 23 22 24 25 25 26 26 26 26 25 26 26 25 23 23 22 20 21 21 21 22 23 24 24 24 25 25 24 24 23 22 21 21 21 21 21 20 21 23 23 23 24 25 25 25 25 24 24 25 24 23 22 22 23
19 21 21 21 21 21 21 22 22 21 22 21 22 23 23 24 24 24 24 24 23 23 23 23 23 23 23 22 22 21 21 22 22 22 22 22 23 24 25 26 26 26 26 26 25 26 26 23 23 22 21 21 21 22 23 23 23 22 23 24 24 24 24 23 22 21 21 21 21 21 21 21 22 22 22 22 23 24 25 24 23 24 25 24 22 22 22 23
19 20 20 20 21 20 21 22 22 22 22 21 22 23 23 23 23 23 23 23 22 22 22 23 23 23 22 22 22 21 21 21 22 22 23 22 23 24 25 25 26 25 26 26 25 26 25 23 23 23 23 23 23 23 24 24 23 22 22 23 23 23 24 23 21 21 21 21 20 21 21 21 20 20 21 21 22 23 24 24 23 24 25 23 22 22 23 23
19 20 20 20 20 20 21 22 22 21 21 21 21 21 21 21 21 21 22 21 21 21 21 21 22 22 22 22 22 22 21 21 21 22 23 23 23 24 24 24 25 25 25 25 25 25 24 22 23 23 23 24 23 23 24 24 23 22 22 22 22 22 23 22 21 21 21 21 21 21 20 20 20 20 20 20 21 22 23 23 23 24 24 23 23 23 24 24
18 19 19 19 19 20 21 21 21 21 21 21 20 20 20 20 19 19 20 21 22 21 19 20 21 21 22 22 21 22 21 21 21 22 23 23 23 23 23 24 25 25 25 25 24 24 23 22 23 24 23 23 23 23 23 23 22 21 21 21 21 21 21 21 21 20 21 21 21 20 20 20 20 19 20 21 21 21 22 21 21 22 23 24 24 23 23 24
16 17 17 17 18 20 21 21 21 20 20 20 19 19 19 19 19 19 19 20 22 21 19 20 20 20 22 22 21 22 22 22 22 22 23 23 23 23 23 24 24 25 25 25 24 24 23 22 23 23 22 21 22 22 22 22 21 20 20 20 20 20 19 19 19 19 20 20 19 19 20 20 20 19 19 20 20 20 20 20 20 20 21 23 24 24 23 24
15 16 16 16 18 20 21 21 20 19 19 19 19 19 19 18 19 19 19 20 21 21 20 20 19 20 22 22 21 22 23 22 23 23 23 23 23 24 24 24 24 25 24 24 24 24 24 22 22 23 22 21 21 22 21 21 21 20 19 19 19 19 19 18 18 18 19 19 19 19 19 19 19 19 19 20 20 19 19 19 19 19 20 22 23 24 23 22
14 15 15 16 18 20 20 20 20 19 19 19 19 19 18 18 18 19 20 20 20 21 20 19 19 20 22 22 22 23 24 24 24 24 24 24 24 24 24 24 24 24 24 24 23 23 23 23 22 22 21 21 22 22 21 21 21 20 18 17 17 18 18 17 17 17 17 18 18 19 19 18 18 18 19 19 19 18 18 18 18 18 19 20 20 21 21 21
Height
799 798 796 795 793 792 791 790 789 787 786 785 783 782 781 780 779 779 778 777 776 775 775 774 774 773 772 771 770 769 768 766 762 762 759 742 734 738 739 741 742 744 747 749 751 752 750 749 749 751 757 759 757 755 753 751 749 755 766 775 779 777 772 764 760 757 756 759 759 759 755 758 769 768 764 768 772 775 779 781 779 778 778 780 783 784 788 793
798 797 795 794 793 791 790 789 788 787 785 784 783 782 781 780 779 778 777 776 775 774 774 773 773 772 771 770 769 768 766 763 760 757 745 732 732 736 736 738 741 744 746 748 749 750 750 749 748 752 758 759 755 752 752 749 748 756 764 772 775 770 762 752 750 749 749 754 756 758 757 756 764 766 763 773 783 779 782 788 784 784 785 785 786 788 791 793
797 796 794 793 792 790 789 788 787 786 784 784 782 781 780 779 778 777 776 775 774 773 772 772 772 771 770 769 767 767 764 761 758 747 733 729 731 731 732 735 738 742 745 746 747 748 748 748 748 752 758 759 753 749 751 748 749 755 762 770 767 760 757 748 744 744 744 748 754 759 758 758 762 762 765 776 785 783 784 788 787 789 789 788 790 790 792 795
796 795 793 792 791 789 788 787 786 785 783 782 781 781 780 779 778 777 776 774 773 772 771 771 770 770 769 767 767 765 764 761 751 735 728 728 727 725 727 732 737 741 743 745 746 747 747 747 748 751 758 759 751 748 750 749 750 754 759 767 757 753 758 747 741 742 744 746 751 758 758 762 762 761 768 774 782 789 787 782 782 786 787 788 790 791 793 796
796 794 792 791 790 788 787 786 785 783 782 781 781 780 779 778 777 776 775 774 773 772 771 770 770 769 768 767 766 765 765 758 740 729 729 727 723 722 725 731 736 739 742 744 745 745 746 747 748 752 756 754 751 750 750 748 750 754 756 757 750 751 756 748 742 742 745 748 751 757 760 763 763 765 772 771 777 785 783 779 778 780 783 786 788 791 794 796
795 793 791 790 789 788 786 785 784 783 782 781 780 779 778 778 777 776 774 773 772 771 771 770 769 769 767 766 765 764 766 754 734 729 729 725 723 723 726 732 736 739 741 743 744 743 744 746 748 753 753 751 751 750 751 750 751 757 757 751 749 749 749 746 745 742 743 750 755 758 759 760 765 772 774 772 775 776 775 777 778 780 782 785 788 791 794 797
794 792 791 789 788 787 785 784 783 782 781 780 779 779 778 777 776 775 774 772 772 771 770 769 769 768 766 766 764 764 766 752 733 729 728 726 727 726 729 733 736 739 740 742 742 743 743 745 748 751 752 751 751 750 753 754 752 758 760 753 750 747 744 743 744 742 742 750 754 755 758 762 768 773 775 775 776 774 775 777 779 782 784 787 790 792 794 796
793 792 790 789 787 786 784 783 782 781 780 780 779 778 777 776 775 774 773 772 770 770 770 769 768 768 767 766 764 764 762 748 731 729 729 728 729 729 732 734 736 738 739 741 741 742 743 744 748 750 753 752 749 750 753 757 757 756 759 756 750 747 743 741 743 743 744 750 753 755 762 767 768 770 776 780 778 776 777 780 781 784 786 789 791 792 795 797
793 791 789 788 786 785 784 782 781 780 780 779 778 777 776 775 774 773 772 771 770 770 769 769 768 767 767 765 765 762 751 738 731 731 730 730 731 732 734 735 737 738 739 741 740 742 743 744 748 748 751 750 748 750 753 761 762 755 757 757 753 752 747 746 749 746 747 751 752 760 771 771 767 769 781 784 780 779 779 782 784 786 788 790 791 793 794 796
792 790 789 787 786 784 783 781 780 779 778 778 777 776 775 774 773 772 771 770 769 769 768 768 768 767 767 764 765 758 741 734 734 732 732 733 734 734 736 736 737 738 739 741 741 742 742 743 745 744 746 748 749 751 754 759 757 752 755 756 756 756 752 757 761 754 751 753 753 763 774 771 765 772 787 788 780 780 782 785 787 787 790 790 791 793 794 796
792 790 788 787 785 784 782 780 779 778 777 776 775 775 774 773 772 771 770 769 769 768 768 767 767 767 766 765 766 754 737 735 735 733 736 736 737 737 736 735 736 737 739 740 741 742 742 742 741 742 746 748 750 751 751 752 751 751 752 756 761 757 753 758 765 762 756 758 757 760 769 770 767 775 785 784 780 781 783 787 789 789 791 790 792 793 794 796
791 789 787 786 785 783 781 780 778 777 776 775 775 773 773 772 771 770 769 769 768 768 767 767 767 766 766 765 763 748 735 737 736 735 738 737 738 737 736 736 736 737 738 740 740 740 741 741 740 744 747 747 752 753 752 751 751 753 752 762 772 765 761 759 763 766 761 764 760 758 773 778 775 780 782 780 781 782 784 789 790 790 791 791 792 794 795 796
790 788 787 785 784 782 780 779 777 776 775 774 774 773 772 771 770 769 769 768 768 768 767 766 766 766 766 761 750 741 736 737 737 737 737 737 737 736 737 737 736 738 739 739 740 739 739 740 739 743 744 745 751 751 752 753 752 756 757 766 777 774 771 766 764 765 762 766 759 759 783 789 783 784 781 780 781 783 787 790 790 791 791 792 793 794 796 796
789 787 786 784 783 781 780 778 777 775 773 773 773 772 771 770 769 769 768 768 767 768 767 766 765 765 766 756 742 739 739 737 738 737 736 736 736 736 737 736 737 738 738 740 740 739 739 739 739 742 742 743 747 749 758 764 760 763 765 773 786 785 779 769 766 768 767 766 758 762 785 789 786 786 781 780 780 782 788 790 790 792 792 793 793 794 796 796
788 787 785 783 782 780 779 777 776 774 772 772 772 772 770 769 769 767 768 767 767 767 766 766 765 765 765 753 742 741 740 738 738 736 736 737 737 736 735 735 736 736 737 739 739 739 739 739 742 747 746 742 746 761 779 779 770 771 776 787 795 790 783 773 767 772 773 769 759 766 786 790 788 786 781 781 781 783 788 790 790 791 792 793 793 794 795 796
788 786 784 782 781 779 778 776 775 773 771 771 771 771 770 769 768 767 767 767 767 767 766 767 765 767 765 753 744 742 740 739 737 735 735 735 736 736 734 734 735 735 736 737 737 738 738 740 744 748 748 748 755 772 787 787 781 780 785 794 796 791 790 785 776 773 772 773 767 768 785 792 787 783 782 781 782 784 787 789 790 791 792 792 793 793 794 796
787 785 783 781 780 778 777 775 774 772 770 770 770 770 769 769 767 767 767 767 768 766 766 767 766 767 762 749 746 746 741 739 738 736 735 735 735 735 734 735 735 735 734 735 737 738 740 745 748 750 751 755 761 768 780 790 790 788 790 793 794 791 793 793 784 773 769 774 773 770 780 785 781 780 782 781 781 783 786 788 789 790 791 791 792 793 794 795
786 784 782 780 779 777 776 774 773 771 769 769 768 768 768 768 767 767 767 766 767 766 766 766 765 769 763 751 748 747 742 740 739 737 737 736 735 734 734 735 734 735 737 739 741 742 747 750 751 755 758 761 764 766 775 787 787 789 793 793 792 790 790 793 787 777 775 779 777 775 779 782 781 781 781 780 780 782 784 785 787 788 790 791 792 793 794 794
786 784 782 780 778 776 775 773 772 770 768 767 767 767 767 766 766 766 767 768 766 764 764 764 763 767 765 754 747 744 741 740 740 739 738 737 736 734 733 734 736 739 744 749 750 748 750 753 754 761 769 770 769 766 768 774 775 783 790 790 792 792 788 789 789 783 782 785 781 778 781 784 785 783 781 780 779 781 783 783 786 788 788 790 791 792 793 793
785 783 781 779 777 775 774 772 771 769 768 767 767 766 766 767 768 766 766 766 764 758 757 758 758 760 759 751 745 743 741 741 741 739 738 738 737 737 736 737 740 744 750 756 757 751 750 760 765 768 773 772 769 766 765 769 773 781 789 790 792 793 788 786 788 787 785 788 783 776 780 785 785 782 779 778 779 782 783 784 786 787 787 788 790 791 791 792
784 782 780 778 776 774 773 771 770 769 768 767 766 766 764 766 769 767 763 761 756 753 755 753 752 755 752 749 745 743 743 744 741 738 738 738 737 742 745 744 749 754 754 756 757 752 754 765 769 767 768 767 766 766 766 772 777 784 791 793 793 793 791 786 786 785 785 790 786 776 780 785 783 780 777 778 780 781 781 783 785 784 785 786 787 789 789 791
784 781 779 778 775 773 772 770 769 768 767 766 766 766 763 761 763 762 760 761 755 749 752 750 750 751 747 746 745 743 746 749 746 741 738 739 741 747 751 750 757 760 755 754 759 763 766 768 766 764 763 765 767 766 767 774 781 787 790 792 793 790 789 787 784 781 780 785 786 780 781 783 781 779 778 776 777 776 776 778 780 781 783 784 785 787 788 791
783 780 778 777 774 773 771 769 768 767 766 766 766 765 761 758 758 757 759 764 759 749 749 750 750 749 747 747 744 744 749 751 750 745 738 741 745 748 751 755 759 761 759 760 765 774 776 769 763 763 762 765 769 770 771 777 784 788 787 791 793 790 792 790 786 784 780 780 785 784 783 781 778 778 779 775 772 772 773 775 776 776 778 780 781 783 785 788
782 779 777 775 774 772 770 768 768 767 766 765 764 761 758 757 757 758 758 763 762 752 746 746 746 746 747 744 741 745 750 748 748 745 739 743 747 748 751 755 758 763 764 763 767 774 774 766 762 764 765 766 771 774 774 778 786 788 786 790 792 791 793 790 786 785 782 782 783 785 790 785 777 780 781 776 773 773 772 774 775 775 775 776 778 780 781 783
780 779 776 774 773 771 769 768 766 767 766 764 761 758 757 757 756 756 759 766 767 755 745 744 745 744 740 739 740 742 746 746 744 742 739 741 746 750 753 753 757 767 767 764 769 773 769 762 762 768 770 770 772 775 773 774 784 788 786 785 787 789 791 789 788 788 791 795 786 787 802 794 777 779 781 776 777 775 772 774 775 774 774 775 777 779 780 781
779 778 775 773 772 769 769 767 765 767 765 762 760 758 758 757 756 756 761 774 776 761 752 751 750 745 739 740 739 739 750 751 740 737 739 740 742 747 754 755 756 765 767 765 772 778 772 763 764 770 774 773 774 776 775 776 788 794 785 779 784 788 788 788 790 792 800 803 788 784 802 801 784 778 776 776 778 776 773 773 772 771 772 774 776 777 778 781
778 776 774 773 771 769 769 766 766 766 763 761 759 758 758 756 757 756 764 786 785 764 757 756 751 746 741 739 736 744 760 754 740 740 739 740 741 743 754 759 759 766 766 768 779 782 775 770 771 771 772 775 777 776 775 776 790 794 779 774 782 785 786 788 791 794 797 795 788 785 794 803 796 779 771 773 777 777 775 773 771 769 770 771 773 775 776 778
777 775 773 772 771 770 769 767 767 764 762 760 758 758 757 756 757 756 773 800 787 760 756 754 745 741 739 737 737 745 753 747 750 752 739 740 746 748 760 763 762 768 765 770 782 775 767 770 771 768 771 776 774 771 768 769 780 781 771 773 779 780 785 788 791 795 794 795 797 791 791 804 801 778 769 773 777 779 775 771 770 768 768 769 771 773 774 775
776 774 772 771 770 769 768 767 766 763 761 759 757 757 755 755 757 761 782 798 779 757 755 750 743 742 740 741 742 744 744 745 753 750 739 744 748 751 761 757 754 760 757 761 770 763 757 758 757 759 767 769 763 760 760 762 771 771 769 775 778 781 786 789 794 795 797 801 800 793 792 802 797 776 772 779 777 775 771 767 766 764 765 766 768 771 772 774
774 773 771 769 769 768 768 766 762 761 759 757 758 756 754 756 762 779 797 793 774 761 754 748 748 746 745 749 750 747 747 748 747 743 743 746 746 747 749 744 745 753 752 753 757 753 747 745 746 752 756 754 750 752 754 757 763 767 772 781 785 790 790 793 797 794 802 806 793 787 789 795 796 777 769 774 766 761 763 765 764 762 762 764 765 768 770 772
772 771 770 768 768 768 768 764 759 759 759 758 757 754 756 762 771 793 800 780 770 766 754 752 751 746 747 753 756 751 750 751 746 748 751 749 749 750 749 749 751 755 757 757 755 750 745 745 746 742 738 740 743 751 755 755 757 763 775 785 790 796 795 797 800 798 811 808 784 781 784 792 802 780 759 760 752 748 756 759 760 760 760 762 763 765 767 769
769 768 767 766 765 765 765 762 758 759 759 758 757 755 763 775 782 793 788 771 773 770 758 757 752 747 749 751 753 752 752 754 750 751 754 754 757 755 754 759 759 763 770 766 759 754 747 744 742 734 730 733 741 757 767 765 762 765 775 783 791 801 802 804 808 808 813 801 779 779 784 791 798 773 752 754 749 746 749 748 752 755 756 759 761 763 764 766
767 765 764 763 762 760 759 759 759 760 759 757 758 759 769 787 790 785 779 774 774 765 755 756 751 748 751 751 753 750 752 756 753 752 753 754 759 758 755 755 753 762 771 766 764 762 753 744 738 737 736 732 737 758 774 775 771 769 772 777 785 801 809 810 812 809 804 793 778 777 782 788 784 761 747 747 744 743 743 743 746 748 751 755 756 760 762 764
763 762 761 759 758 756 755 757 758 759 759 757 760 767 777 790 787 775 773 772 766 757 754 754 751 749 750 751 751 748 754 758 751 752 756 756 762 763 759 754 750 754 761 764 767 767 770 764 747 742 743 737 738 747 756 761 765 767 766 768 774 785 795 799 801 799 795 792 785 781 784 785 775 756 743 739 738 740 741 741 743 744 747 750 753 757 760 762
760 758 758 756 755 753 752 755 756 758 760 758 765 777 785 788 782 774 771 766 760 758 756 752 752 755 754 750 747 744 752 758 751 753 757 759 764 764 758 753 748 749 758 768 768 768 781 775 749 739 738 738 744 743 740 751 765 767 763 767 770 768 772 783 788 788 788 792 792 787 781 771 759 748 740 739 740 740 741 741 743 745 746 749 753 756 757 760
758 756 755 753 752 751 751 752 754 757 759 760 772 783 782 778 773 770 766 759 758 760 759 758 759 764 764 757 754 749 748 752 752 755 758 758 760 759 753 746 743 746 752 761 765 767 778 769 742 737 740 738 743 740 735 747 764 768 766 767 763 754 758 776 788 787 788 793 791 785 777 764 757 752 743 743 745 743 744 744 743 745 746 749 753 753 755 757
756 754 753 751 749 750 750 751 753 756 757 763 776 780 773 767 761 759 757 754 756 757 762 769 769 770 772 767 763 756 751 753 752 755 760 760 757 753 748 741 737 741 742 749 759 759 764 764 744 738 744 736 731 734 734 737 747 761 766 759 754 754 758 769 784 789 792 796 789 783 782 775 772 767 752 747 749 746 746 745 744 745 747 749 750 750 751 752
754 753 751 749 748 749 750 751 753 756 758 767 778 775 767 762 755 752 751 750 754 757 764 774 771 769 773 773 769 759 754 759 760 758 761 763 758 748 744 741 734 735 735 741 754 751 754 766 752 737 742 737 727 736 747 742 738 747 752 746 750 766 772 772 782 789 794 801 795 786 785 781 777 771 757 751 751 746 746 747 745 745 746 748 748 747 748 749
754 754 752 749 748 749 751 753 753 756 762 772 780 773 763 759 753 749 747 747 753 758 765 771 768 767 771 771 767 760 756 762 764 762 763 768 765 748 741 742 737 734 733 735 747 747 749 766 763 742 737 737 735 743 755 753 743 741 743 744 747 758 767 770 776 782 787 799 802 792 788 782 772 763 755 752 749 745 746 748 747 746 744 745 746 746 747 748
755 756 754 750 750 751 751 754 756 761 768 773 774 768 759 755 752 747 743 743 750 755 761 768 768 768 769 765 763 761 759 762 763 763 764 766 765 751 740 741 739 733 731 734 741 744 747 760 767 752 738 744 749 747 749 752 751 750 750 751 752 752 758 764 771 775 779 791 801 800 796 785 764 754 752 749 746 744 746 746 746 744 742 742 742 743 744 746
757 760 757 751 752 753 752 757 762 766 770 769 767 763 757 753 751 749 743 742 747 750 752 760 765 766 764 762 763 761 760 763 763 763 763 761 762 757 744 739 739 734 734 739 741 743 747 754 764 761 751 755 754 741 738 742 746 751 750 750 753 754 760 772 780 778 774 783 793 795 798 784 759 750 750 745 743 744 746 745 744 744 743 741 740 740 741 743
759 762 758 752 754 753 754 762 765 765 766 766 762 758 753 750 750 750 746 745 749 750 749 755 759 761 760 760 761 760 761 765 765 764 764 760 759 757 745 736 736 733 735 743 742 738 742 750 759 761 755 754 748 737 736 738 737 743 746 747 751 753 759 772 783 779 775 783 785 785 793 782 755 749 751 745 742 743 744 744 744 745 744 741 740 739 739 740
761 762 757 754 755 753 758 767 768 764 764 760 756 753 749 747 748 748 747 748 751 752 753 754 753 756 758 757 758 760 762 766 766 763 763 761 754 749 743 736 735 734 736 745 744 736 740 751 759 761 754 746 740 734 734 735 737 745 749 747 749 752 754 761 770 770 774 785 784 785 796 783 755 750 753 748 743 742 741 741 741 743 743 740 740 739 738 740
763 761 756 756 756 756 763 770 770 768 764 759 757 754 748 745 745 747 748 750 750 750 753 753 751 753 756 755 756 760 762 766 768 763 761 762 754 744 740 737 735 736 739 744 742 737 745 756 760 767 771 766 759 754 749 746 747 753 754 749 748 751 753 758 763 766 775 785 782 787 800 786 759 754 755 750 745 743 741 739 738 740 740 740 740 740 741 743
763 762 758 758 757 759 765 766 766 769 766 763 762 758 752 747 744 745 747 750 751 751 753 754 751 751 753 755 759 761 761 763 765 763 761 761 753 744 741 738 736 738 738 738 736 735 747 758 759 769 784 789 785 779 770 762 758 759 757 753 752 753 755 759 765 771 781 786 782 787 795 783 764 760 759 755 750 747 744 742 741 740 739 741 743 744 745 745
764 765 764 762 760 761 763 760 761 765 765 765 765 759 756 754 749 745 747 752 754 753 754 754 752 753 756 759 763 766 763 761 762 762 763 761 756 747 742 739 739 739 736 735 734 736 748 758 759 764 773 778 777 772 765 761 763 766 762 757 756 757 756 759 768 778 783 783 784 785 784 783 780 774 768 762 755 750 747 745 745 743 740 742 745 746 746 745
765 768 768 768 767 766 765 760 760 762 761 763 766 761 759 759 756 752 751 754 756 755 755 755 754 758 761 762 765 768 767 764 763 761 761 761 756 750 744 741 741 740 737 737 736 739 752 762 762 762 763 764 764 761 758 759 764 768 765 762 761 759 757 761 771 779 778 781 790 788 782 788 791 782 774 769 760 753 750 748 747 744 742 743 745 745 744 744
767 767 765 766 771 772 769 763 761 762 761 761 764 765 765 765 765 763 760 757 756 757 761 764 761 760 761 762 765 768 769 769 767 763 760 759 757 754 751 747 745 742 740 742 741 744 756 765 763 761 761 761 760 758 757 760 766 768 767 768 768 764 763 767 773 778 777 779 787 787 785 790 790 782 776 770 763 758 753 750 748 746 745 745 745 744 743 742
768 768 765 764 768 770 766 762 761 763 763 763 766 769 770 772 773 771 767 762 760 761 767 773 770 763 760 761 764 768 769 770 770 765 759 758 758 758 759 756 749 744 743 746 746 747 757 766 763 760 763 766 764 762 762 764 770 774 774 775 774 773 773 773 775 778 777 777 782 784 786 787 785 781 777 769 764 760 755 754 752 750 749 746 745 746 745 743
773 773 771 770 769 766 762 761 762 765 766 766 770 772 771 773 773 770 767 765 765 766 768 772 773 768 762 761 764 766 763 762 764 761 757 758 759 758 759 758 753 748 747 749 750 749 755 766 765 760 767 775 773 768 768 769 774 779 781 780 778 778 780 781 782 782 780 782 786 785 786 785 780 778 776 771 766 762 760 760 758 755 752 747 745 746 746 745
776 774 774 776 773 766 762 763 764 768 771 771 773 773 773 774 772 768 766 764 762 766 768 769 772 769 762 760 763 761 756 755 756 754 751 754 755 753 754 753 751 752 752 753 753 751 754 764 765 762 772 780 775 772 774 772 774 783 789 790 788 787 789 790 791 790 788 789 789 787 790 790 783 778 777 774 769 767 767 767 764 760 756 751 749 747 746 747
775 774 773 776 774 768 765 766 767 771 774 772 771 772 773 773 770 767 768 765 761 762 767 769 771 768 764 762 760 754 749 748 748 746 745 747 748 747 749 749 749 752 754 754 757 758 758 762 765 769 778 779 771 772 775 772 778 793 802 801 799 796 795 795 795 794 792 792 793 794 795 791 784 781 780 777 774 773 772 771 769 766 761 757 755 752 749 749
Wind_Speed
17 17 17 16 15 15 14 13 14 13 13 13 13 12 12 12 11 11 11 11 11 12 13 14 14 14 14 15 15 15 17 20 22 20 20 21 26 30 23 16 11 5 5 6 11 13 10 5 4 5 5 5 4 3 6 6 4 4 3 3 4 1 2 4 6 5 8 9 7 6 7 15 9 5 6 7 11 12 10 7 6 8 8 10 17 28 31 28
17 17 17 17 16 15 14 13 13 13 13 13 12 12 12 12 11 11 11 12 11 11 12 13 14 14 15 15 15 15 17 20 20 22 26 18 17 26 27 22 17 11 7 8 10 10 5 1 3 6 4 3 3 4 5 5 5 3 3 4 4 3 4 5 8 7 8 11 9 5 6 12 11 6 5 6 6 10 13 8 9 13 11 13 20 26 27 27
17 17 17 17 16 15 15 14 13 13 12 12 12 12 12 12 12 12 12 12 11 10 10 11 13 13 14 14 14 15 17 19 16 18 19 13 15 22 24 20 15 14 12 14 12 8 7 4 4 6 3 5 4 4 5 3 3 3 2 3 5 5 6 8 7 9 9 12 13 7 5 9 7 2 4 8 7 8 12 9 10 14 12 13 15 19 24 24
18 17 17 16 16 16 15 14 13 13 13 12 12 12 12 12 12 12 11 11 11 10 10 10 11 12 13 13 13 14 15 13 8 11 15 18 21 17 18 20 15 15 14 14 10 8 8 5 4 3 4 6 3 3 5 3 1 2 3 4 5 4 6 7 4 7 8 10 13 9 8 9 4 4 7 11 9 4 6 8 12 17 16 15 14 15 20 20
18 17 17 16 16 16 15 14 13 13 13 13 12 12 12 12 12 12 10 10 10 11 11 10 10 11 12 12 12 12 10 5 3 9 18 21 19 8 17 22 19 17 12 10 8 8 7 3 1 1 4 5 3 2 2 2 0 2 3 5 4 3 4 4 2 9 8 7 11 10 9 7 4 7 6 8 7 4 5 7 13 18 17 17 16 15 16 16
19 18 17 16 16 16 15 14 14 13 13 13 12 12 12 12 12 11 10 10 10 10 10 9 10 10 11 12 10 9 4 2 9 16 19 19 12 5 22 24 19 15 11 9 8 4 3 3 3 2 3 2 4 3 4 2 3 2 3 4 7 8 5 4 4 10 10 9 8 7 6 6 9 7 2 4 3 5 7 9 14 15 16 18 16 14 13 12
20 18 17 17 16 16 16 15 14 13 13 13 12 12 11 12 12 11 10 10 10 9 9 9 10 10 10 11 8 5 3 7 16 18 16 12 1 16 24 21 17 14 11 9 6 3 1 1 4 2 1 1 2 3 6 0 4 1 2 7 10 10 3 6 7 9 11 10 7 7 9 8 12 7 1 5 3 6 10 10 13 14 16 17 14 12 12 12
20 19 17 17 16 16 16 15 14 13 12 12 12 12 11 12 11 11 10 9 9 9 9 9 10 10 10 10 6 3 5 10 15 13 9 2 10 20 22 17 15 13 11 9 5 2 1 2 5 3 1 1 2 5 6 1 2 2 1 6 8 7 3 3 6 11 12 9 9 12 12 9 10 9 4 5 5 9 11 10 12 13 13 13 12 12 11 10
21 19 18 17 17 16 16 15 14 13 12 12 11 11 11 11 11 11 10 9 9 8 9 9 9 10 9 7 5 4 5 8 8 7 1 7 15 19 18 15 14 12 9 7 4 1 1 3 5 3 3 2 2 5 6 3 2 1 3 3 4 5 7 8 6 10 11 7 12 15 11 9 9 9 6 3 6 10 11 12 11 12 12 11 10 10 10 9
21 19 18 17 17 17 16 16 14 13 12 11 11 11 11 11 11 10 9 9 8 7 8 9 9 9 8 6 4 3 5 6 5 6 4 10 15 15 14 13 15 13 6 4 5 4 2 2 4 3 3 0 1 5 4 3 3 2 6 6 6 5 10 12 8 5 9 6 12 16 10 7 3 5 5 1 6 11 12 11 10 11 11 10 9 8 9 9
21 20 18 17 17 17 16 16 15 13 12 11 11 11 10 11 11 10 9 7 6 6 7 9 9 8 7 6 2 2 6 7 3 6 5 10 13 14 13 12 16 13 8 4 5 9 5 4 4 3 2 1 1 4 3 2 1 3 6 8 10 7 11 13 11 10 5 5 9 15 8 3 4 4 8 7 8 11 13 11 9 10 9 9 9 7 8 8
22 21 19 17 17 17 16 16 15 14 13 11 11 10 9 10 10 9 8 6 5 6 7 8 7 7 8 4 4 6 9 7 3 5 4 7 8 13 12 11 14 12 10 3 5 10 9 7 4 3 1 2 2 3 3 5 1 2 5 8 7 7 8 10 5 7 4 3 5 12 7 4 4 5 10 9 9 11 12 11 9 9 8 8 8 7 6 8
22 21 20 18 18 17 17 16 15 14 13 11 10 9 8 8 8 8 8 6 5 6 5 6 6 6 5 3 6 6 10 6 2 3 1 3 3 9 9 10 12 10 11 6 5 10 8 7 6 3 3 2 3 3 2 6 2 3 5 7 3 5 4 3 2 2 4 4 5 8 4 4 1 6 10 9 10 12 10 10 8 8 7 7 7 6 6 8
22 21 20 19 19 18 17 16 15 14 13 11 10 9 7 7 7 6 7 5 2 4 5 5 5 4 2 5 7 8 9 4 5 5 2 2 4 5 9 12 12 13 13 11 6 14 9 7 5 2 3 1 5 6 5 7 3 4 4 4 3 2 1 4 4 3 3 4 2 7 3 5 1 7 9 8 11 13 10 9 8 7 7 6 7 7 6 7
22 22 21 20 19 19 17 17 16 15 13 11 10 8 6 4 5 5 5 4 1 3 5 5 4 2 2 5 7 9 8 3 6 9 6 6 8 7 11 12 13 15 14 17 10 15 10 5 3 2 3 1 7 9 3 5 4 4 3 3 2 1 1 6 7 7 3 2 3 7 2 3 3 7 7 7 10 11 10 8 8 8 8 8 7 7 7 6
22 22 22 21 20 20 18 17 17 15 13 12 10 7 5 4 4 5 4 3 2 2 3 5 4 1 1 3 7 10 7 6 7 10 9 8 9 9 12 10 10 9 4 13 11 14 11 4 3 0 0 3 6 8 2 2 4 4 3 2 2 1 1 5 6 7 5 3 2 4 3 2 2 6 7 6 9 10 10 9 8 9 8 8 8 7 7 6
23 23 23 22 21 20 19 18 17 15 14 12 9 5 3 4 5 4 3 2 2 3 3 3 5 2 0 4 7 7 6 8 8 11 12 10 11 13 11 5 3 2 8 9 6 9 7 3 2 1 2 3 4 5 3 2 2 3 3 2 2 1 1 1 3 5 3 3 3 3 4 3 4 8 8 7 9 10 10 10 9 9 8 8 7 7 7 7
23 23 23 23 22 21 20 18 17 16 14 11 8 5 3 4 6 4 1 1 2 3 3 4 4 2 2 5 4 6 9 9 7 9 11 7 6 5 1 4 5 5 6 6 5 4 4 2 0 2 4 4 4 3 3 2 2 2 2 1 1 1 1 2 2 4 3 4 5 3 3 3 5 8 8 7 9 10 10 9 9 9 9 8 8 8 8 8
24 23 23 23 22 21 20 19 16 16 14 9 6 4 4 3 4 2 0 1 0 0 1 2 0 2 3 7 5 8 11 9 7 7 8 6 2 7 8 6 6 6 4 3 4 3 2 2 2 3 4 5 4 2 5 6 6 6 4 2 1 2 3 2 1 2 2 2 5 3 3 4 8 9 9 8 8 8 8 8 8 8 9 8 8 8 9 9
24 23 23 23 22 21 20 19 17 15 14 10 6 1 1 1 2 1 1 1 3 3 2 3 3 1 5 6 6 7 7 5 5 4 4 6 1 8 7 6 5 5 4 3 1 3 2 4 2 2 2 4 5 6 6 9 9 6 3 2 1 0 2 1 4 1 2 3 5 2 2 6 9 11 11 9 8 8 8 8 9 9 9 9 9 9 10 9
24 24 23 22 22 21 20 19 17 15 13 11 7 2 1 1 1 3 3 2 5 7 5 6 8 5 6 6 7 6 2 2 4 4 2 4 5 6 4 4 5 4 3 4 2 3 3 4 2 3 2 4 6 7 9 10 10 7 4 2 1 1 2 2 3 3 2 3 3 2 2 6 9 10 10 9 9 10 9 10 10 10 10 9 9 11 10 7
24 24 23 22 21 20 20 19 16 14 12 9 5 2 2 2 1 3 2 2 5 7 7 8 6 6 7 9 13 9 1 1 3 6 3 3 4 3 1 3 5 1 1 3 3 4 4 2 3 1 1 3 5 6 9 9 8 6 4 4 0 2 2 1 2 3 3 1 3 4 1 4 5 6 8 10 11 10 9 11 11 12 11 9 10 11 9 8
24 24 24 22 21 21 19 18 14 11 10 7 5 5 4 2 3 6 1 1 5 4 5 6 5 5 4 7 13 8 2 1 2 5 3 2 3 1 2 3 4 1 1 3 4 3 2 2 1 1 2 2 3 4 7 7 4 3 3 4 1 2 1 1 1 2 1 2 1 2 2 3 3 3 7 10 10 7 7 10 10 11 12 12 12 11 11 12
24 24 23 22 22 20 19 17 9 6 11 10 9 8 6 5 6 6 1 1 4 4 4 4 3 4 6 7 9 9 4 2 3 3 4 4 1 1 2 2 3 3 3 5 5 3 2 5 3 3 1 2 0 2 5 5 3 1 3 3 1 1 1 2 2 2 1 1 0 1 3 4 3 4 6 7 6 6 6 8 9 9 11 11 11 12 13 14
24 23 23 22 21 19 19 13 3 6 12 10 10 13 8 6 5 3 2 2 2 4 2 1 1 3 7 6 8 9 3 1 4 4 6 7 3 2 1 1 3 2 2 5 6 2 4 4 2 1 0 3 3 2 2 4 3 2 2 3 3 2 2 2 1 2 2 2 1 1 1 4 4 4 6 6 6 7 6 8 9 8 9 9 11 12 12 13
24 23 22 21 20 20 15 5 3 11 11 6 9 16 9 3 2 1 2 3 2 4 1 2 2 2 3 3 5 4 3 1 6 5 8 7 4 4 1 0 2 2 2 3 4 1 4 4 3 3 4 6 5 1 2 4 4 1 1 5 8 5 3 2 3 2 2 1 2 1 3 3 4 3 6 7 9 10 7 8 10 8 8 9 10 11 11 11
24 22 22 20 19 18 9 3 9 11 4 4 12 14 9 4 2 1 3 4 3 3 1 1 0 1 3 3 4 4 2 2 1 1 3 2 3 5 3 1 2 2 1 2 2 1 4 5 6 9 9 6 4 1 5 9 7 2 4 6 11 9 5 4 3 2 1 2 3 1 3 1 4 5 5 9 10 10 9 9 10 8 8 10 11 12 12 12
23 21 21 18 16 14 8 8 12 6 2 9 12 11 11 8 4 2 5 3 2 3 1 1 1 2 3 1 4 3 2 2 3 1 3 8 6 5 3 2 4 4 5 4 2 4 8 10 11 12 9 5 5 5 9 12 6 3 3 7 9 7 5 5 4 2 1 2 3 1 4 1 5 5 2 8 10 10 11 11 11 9 9 11 11 12 13 13
22 19 19 18 15 10 8 10 10 5 6 11 10 10 11 8 4 4 5 2 2 2 1 1 1 1 2 0 1 2 1 2 2 3 5 11 9 5 2 6 7 7 8 8 5 4 7 12 14 12 7 7 8 8 12 11 4 3 7 8 5 5 5 3 3 2 3 3 3 4 5 2 4 4 1 5 8 11 11 10 10 10 10 11 11 13 13 12
21 18 18 18 13 6 6 12 11 4 9 11 11 11 9 5 3 5 3 1 0 2 1 1 1 1 3 2 1 1 1 1 1 1 2 4 6 6 3 3 3 3 3 4 7 6 5 9 11 9 7 9 8 8 12 11 8 10 9 8 6 4 3 2 2 2 4 1 5 6 9 5 2 4 3 5 6 9 9 7 9 10 10 11 11 12 12 11
21 18 16 16 13 7 5 8 5 3 10 12 11 8 4 3 4 5 1 1 0 2 3 2 2 2 3 4 2 1 1 1 1 3 2 1 2 1 2 2 2 2 2 2 4 5 3 4 6 6 8 9 5 4 8 9 11 12 6 4 5 2 2 2 3 3 3 2 6 4 9 7 1 5 5 5 5 6 10 10 11 13 11 10 10 12 12 12
21 18 16 16 16 14 11 7 5 6 12 10 7 4 3 4 3 1 1 1 1 2 3 3 4 3 2 4 4 4 3 2 2 3 3 2 1 2 0 1 1 3 3 3 2 3 3 3 5 4 5 6 5 6 7 6 6 6 5 4 3 3 2 2 2 1 1 4 5 3 8 5 5 8 8 7 7 6 10 11 13 14 12 10 10 12 12 11
21 19 18 17 16 19 18 13 11 11 11 7 4 4 5 5 1 3 2 1 1 3 2 3 5 5 3 3 2 4 4 2 3 3 3 3 1 3 2 4 4 2 1 2 2 3 3 3 2 1 1 2 6 6 5 4 5 4 5 4 3 3 2 1 2 1 1 4 3 4 7 2 4 6 8 9 9 8 9 9 12 14 13 13 12 12 12 12
21 17 16 15 16 20 19 16 15 11 8 5 3 4 5 3 2 3 2 2 3 3 3 3 5 6 2 1 3 3 3 1 4 4 3 2 1 2 3 4 5 3 1 1 2 2 2 3 3 2 0 1 4 6 7 6 4 3 3 4 3 3 3 2 3 2 2 2 2 2 4 2 1 3 6 8 7 7 7 7 9 12 12 12 11 12 12 12
20 15 13 14 17 17 15 15 13 8 4 2 5 4 3 0 3 2 2 3 2 2 3 3 4 4 4 2 2 3 3 2 5 4 3 2 2 2 2 4 5 4 3 1 1 2 3 3 5 3 3 5 2 3 6 7 2 1 1 3 1 3 4 2 2 3 3 0 1 1 2 3 3 4 5 1 3 5 6 6 7 9 9 9 10 11 12 12
17 13 11 12 14 11 7 8 9 9 4 4 6 2 2 4 3 2 3 3 0 0 3 5 5 3 4 4 2 1 2 2 4 3 2 3 3 3 4 5 5 6 5 2 1 1 2 4 6 2 4 7 7 7 6 6 2 0 1 1 3 3 6 3 1 1 3 3 0 1 2 4 2 3 6 5 4 2 4 6 6 7 8 9 10 10 10 11
16 11 7 9 10 7 3 8 15 12 4 6 4 2 3 4 3 3 3 1 2 2 3 3 2 2 2 2 3 4 2 0 1 1 0 1 2 3 4 5 4 8 8 4 0 2 3 3 6 1 3 6 6 7 4 4 6 4 1 4 2 2 4 3 1 3 4 2 2 2 2 4 3 2 5 5 4 3 3 4 4 6 9 10 10 11 12 13
16 9 6 8 8 5 3 12 18 10 4 5 1 3 3 3 2 1 3 2 3 3 4 2 1 1 1 1 3 4 4 2 3 2 1 2 2 3 3 3 2 5 8 8 2 2 4 1 6 2 2 3 1 6 2 1 3 3 3 4 3 3 1 1 2 1 2 1 3 4 3 2 0 1 4 3 1 3 2 2 3 6 8 9 9 11 13 13
12 4 4 6 3 5 8 16 14 5 5 3 1 3 2 2 2 3 3 4 3 3 2 2 2 1 0 1 2 3 3 1 1 1 1 2 2 4 3 3 3 4 4 9 4 2 3 3 4 5 2 2 3 4 1 4 3 2 0 1 1 3 3 1 1 2 2 2 1 3 3 2 3 4 4 5 6 5 3 1 4 5 7 7 6 8 10 10
5 2 3 5 2 10 15 15 7 5 3 2 3 3 2 2 2 5 4 4 3 2 2 3 2 0 3 2 1 2 2 1 0 1 0 2 2 4 4 4 5 7 2 7 3 1 2 3 1 5 5 4 2 1 5 4 1 1 2 1 2 1 1 1 1 1 2 3 1 1 2 3 5 3 4 6 7 4 4 4 4 5 5 7 7 7 8 8
2 2 3 1 10 18 16 8 2 2 2 2 2 2 3 1 1 4 3 2 2 2 3 4 4 3 3 1 1 1 1 2 2 2 1 1 1 3 4 6 7 7 1 3 1 1 1 2 2 2 3 1 4 5 6 7 6 4 3 3 2 2 2 3 1 3 1 3 3 3 1 5 5 3 4 6 5 3 4 5 4 3 3 5 6 7 8 7
3 2 3 7 19 19 9 3 1 1 2 3 3 3 4 2 2 3 2 2 2 1 2 3 5 4 2 1 1 0 2 2 1 2 0 3 1 2 5 9 8 3 3 2 2 1 3 3 3 1 2 4 7 5 2 4 5 5 1 1 3 3 4 5 2 3 1 2 1 3 2 4 5 4 4 5 4 2 4 4 0 2 4 5 5 5 6 6
2 1 2 13 23 12 4 2 3 3 2 4 4 5 6 4 3 2 1 2 0 1 1 2 3 2 1 1 1 1 2 2 1 1 1 3 3 3 7 11 8 3 4 1 3 1 2 3 3 2 4 3 4 4 4 3 3 4 2 2 2 2 3 5 4 3 2 2 1 2 2 3 6 6 6 4 3 1 2 4 3 3 5 5 5 5 5 3
2 2 1 14 20 5 4 2 2 3 3 4 5 6 7 3 3 2 2 1 1 1 1 1 1 2 1 1 2 1 1 2 1 3 1 1 3 5 7 10 8 4 2 1 2 1 1 1 2 3 4 5 5 6 6 6 5 2 3 4 2 1 4 4 2 3 3 2 1 4 1 5 6 7 9 6 2 1 4 3 4 5 5 5 5 4 2 2
0 2 2 7 12 5 1 4 3 2 4 4 4 7 7 3 1 4 4 2 2 1 1 1 1 2 2 1 2 1 1 3 1 3 2 1 3 4 7 10 9 4 3 3 2 2 2 1 3 4 3 1 1 2 2 2 3 2 3 4 5 5 5 4 2 4 3 2 2 5 3 5 6 9 12 9 1 3 5 7 4 4 5 3 1 3 4 3
2 1 3 1 2 1 2 2 2 1 3 2 3 6 3 2 3 4 5 3 5 5 2 1 3 2 3 3 2 1 2 0 1 1 1 2 3 3 4 7 7 6 8 11 9 3 3 2 3 5 5 5 5 4 3 1 2 1 2 5 6 5 5 5 4 3 3 1 4 2 4 0 7 10 10 11 7 3 5 5 5 5 5 3 3 4 3 2
2 0 0 1 2 2 3 3 2 1 3 2 1 4 3 3 3 3 4 1 2 5 3 2 3 2 1 1 2 1 2 2 2 0 2 1 2 3 5 5 6 7 8 9 8 4 5 3 2 3 3 3 4 3 2 2 3 2 2 4 5 5 7 7 4 2 3 5 4 1 2 4 6 9 9 11 11 5 3 4 4 4 4 1 4 4 3 3
1 0 1 2 1 1 1 2 2 3 3 0 1 3 4 4 4 3 3 2 1 5 5 3 5 2 0 1 3 1 1 2 4 2 1 0 2 3 5 4 4 6 6 5 5 4 5 1 2 1 3 5 5 4 5 7 5 3 4 5 5 7 8 6 4 3 4 5 4 2 5 5 4 9 11 12 11 7 3 4 4 4 2 1 4 3 2 3
2 1 2 2 1 2 4 3 1 3 5 4 3 4 3 4 3 2 3 3 3 5 6 3 7 7 3 2 4 2 1 2 1 3 1 0 2 2 2 2 4 4 4 4 4 3 5 0 3 1 4 7 9 8 8 9 9 8 9 7 6 8 9 6 4 3 3 4 4 4 5 4 3 7 9 10 9 7 7 8 8 6 4 1 2 2 2 4
2 1 2 3 3 3 4 3 2 4 4 4 3 2 2 2 1 1 2 1 1 3 5 3 9 11 5 1 3 2 4 5 4 3 2 1 1 1 1 1 2 3 4 3 2 2 4 1 3 3 5 5 6 7 9 11 12 11 11 9 7 8 9 8 6 4 4 5 4 3 4 3 4 6 7 7 7 10 11 12 12 10 8 5 5 4 3 5
3 3 1 2 2 3 3 3 3 4 3 3 1 1 2 2 1 1 1 1 3 2 1 1 8 10 4 1 2 5 6 5 5 6 5 4 2 2 1 1 1 1 3 2 2 3 3 1 2 5 5 3 2 4 7 9 12 12 11 11 10 8 7 6 6 6 4 3 3 4 4 3 6 7 6 6 9 12 12 12 11 10 10 8 6 7 5 4
7 3 1 1 2 3 2 1 3 4 1 1 1 0 1 1 3 1 1 1 1 4 3 2 7 7 3 3 6 8 8 7 7 7 5 4 4 4 2 2 4 2 1 1 2 2 2 2 1 3 3 3 4 2 4 4 7 6 5 8 9 5 6 7 8 9 8 3 3 4 2 4 5 5 6 7 9 11 10 10 9 9 9 10 9 8 8 7
Wind_Direction
348 347 345 343 341 338 336 334 331 327 327 328 326 326 323 323 322 319 318 313 310 307 302 301 303 309 309 309 311 309 313 306 302 292 268 270 266 254 253 253 258 228 196 258 258 266 288 262 215 173 184 229 209 220 233 218 186 159 160 205 244 197 162 218 219 194 160 156 167 199 141 123 131 125 113 63 64 92 81 58 64 49 65 103 121 132 138 143
348 347 345 343 340 337 334 333 330 327 327 328 328 326 326 326 322 322 321 316 314 310 308 303 303 308 308 308 309 311 313 303 297 281 268 279 283 262 257 252 241 225 223 251 250 242 236 230 127 136 173 228 213 211 207 200 177 164 163 188 225 200 210 238 212 188 157 158 151 155 136 124 137 143 121 102 94 97 90 77 86 87 89 104 121 131 137 142
347 347 346 343 340 336 334 331 329 327 325 326 328 326 327 329 325 326 326 323 319 316 316 308 304 303 303 305 305 313 312 304 293 273 283 308 300 273 251 241 221 201 215 232 243 234 229 307 53 107 189 242 234 190 189 208 167 170 165 196 230 215 249 276 220 180 154 147 130 127 127 116 141 139 91 116 111 99 111 121 112 116 125 123 129 135 138 143
347 347 346 344 340 337 333 329 328 327 324 322 324 327 329 330 329 327 329 329 323 323 323 317 312 303 304 306 305 315 312 306 275 258 307 323 314 294 228 210 190 183 206 226 243 257 259 309 25 99 206 232 235 175 190 196 146 178 167 208 232 221 254 276 217 144 128 132 125 127 116 107 118 85 108 124 103 84 138 152 139 138 140 136 141 142 143 147
346 345 345 344 341 337 332 328 327 327 325 321 322 325 327 332 330 327 330 331 329 329 327 322 317 311 310 307 305 316 316 319 278 283 318 325 323 299 188 177 174 185 202 219 240 262 258 253 89 103 220 214 179 189 187 148 192 271 215 221 248 258 247 278 67 99 97 105 113 120 115 114 94 79 111 123 120 168 179 165 147 143 145 145 147 146 148 151
345 343 343 342 341 338 333 329 328 327 327 323 323 324 327 332 331 330 332 331 333 331 327 325 322 322 315 307 306 310 313 279 295 311 325 330 333 168 159 159 170 181 186 205 233 257 248 198 130 137 222 168 169 177 76 58 283 284 266 305 310 279 222 191 151 119 114 112 115 124 119 114 95 76 58 85 126 169 146 151 144 140 144 144 144 147 153 157
345 343 342 341 340 338 334 331 328 327 327 326 324 323 325 328 329 329 328 329 329 326 326 325 324 328 318 316 314 287 254 259 291 319 331 328 345 150 148 154 169 171 177 197 214 208 272 118 119 136 153 86 189 132 90 254 263 142 315 324 308 288 223 173 167 126 117 119 119 109 101 101 101 100 37 42 51 122 121 135 135 135 140 141 145 150 157 161
344 343 341 341 340 338 335 332 329 327 326 327 325 323 323 323 325 325 325 327 323 324 325 320 323 326 324 326 325 287 241 260 300 330 328 315 145 148 146 155 169 172 184 194 183 145 354 95 122 129 108 211 193 111 95 28 300 107 14 310 296 306 356 126 136 114 111 112 101 89 88 96 102 104 77 43 79 112 119 126 129 135 140 145 150 153 158 160
344 342 340 339 339 338 335 333 329 326 323 325 324 321 320 319 320 322 323 323 320 322 322 321 321 320 323 314 298 311 264 265 324 358 357 143 147 151 148 159 173 174 183 193 192 313 312 128 134 175 175 226 178 102 85 67 283 167 78 342 324 341 17 52 80 107 108 104 102 92 90 110 104 88 62 37 111 117 119 126 134 140 144 150 151 155 158 157
342 341 339 338 339 338 335 333 329 325 321 320 320 317 318 316 316 319 322 325 319 316 322 323 319 322 327 311 293 319 299 301 6 46 105 141 146 151 153 165 172 172 169 171 193 221 247 152 169 181 138 242 168 100 91 140 216 152 97 43 24 36 43 44 12 48 93 89 105 107 113 130 98 78 91 161 131 124 124 128 141 144 147 153 149 154 156 154
341 341 340 337 338 337 334 333 330 326 320 314 315 315 315 314 313 317 324 331 322 318 327 321 319 328 320 313 303 274 309 319 3 44 89 134 143 162 169 174 176 177 176 162 214 216 225 232 192 140 91 252 173 79 42 290 233 150 116 52 17 33 56 53 9 345 48 64 104 114 112 85 20 82 139 166 146 132 131 136 147 147 151 153 149 152 153 153
341 342 340 339 337 336 335 333 330 326 320 312 310 310 313 313 313 315 320 332 331 320 325 319 320 328 314 290 229 267 326 324 316 23 84 133 153 179 177 181 187 189 185 187 258 206 193 209 163 97 213 158 95 80 9 309 20 99 100 73 5 9 55 66 46 316 3 74 131 109 80 358 22 120 150 153 144 134 132 140 148 148 152 151 149 151 154 154
342 341 341 340 337 336 335 332 330 325 319 312 306 306 308 310 316 316 314 325 331 315 319 324 321 328 330 268 251 304 346 331 252 352 28 165 205 194 187 193 199 207 201 226 234 151 140 198 165 122 226 135 94 114 21 315 11 42 51 85 4 14 58 49 118 241 82 150 202 104 85 288 360 145 156 149 142 134 133 146 150 150 152 150 152 150 155 157
342 342 340 339 338 336 335 332 330 324 319 314 307 303 299 303 313 314 313 322 341 324 329 334 318 331 342 267 297 349 357 330 217 247 259 216 255 235 228 218 220 228 218 241 215 122 118 215 173 107 270 116 94 74 29 327 3 30 23 64 2 40 108 321 343 352 75 183 224 84 120 256 185 161 164 158 148 140 143 151 151 153 151 151 154 153 157 164
343 343 340 340 339 337 336 334 330 325 321 316 309 301 297 303 309 306 310 312 297 304 325 337 319 325 330 287 324 353 343 317 227 249 263 234 236 249 259 243 239 247 231 232 211 114 121 195 107 64 287 23 88 77 33 298 358 35 37 44 343 66 279 319 351 345 312 253 35 84 137 262 176 178 175 162 151 144 148 153 155 157 155 158 160 159 162 169
343 343 341 340 339 338 338 335 330 327 321 316 315 308 307 314 307 300 294 300 301 280 314 347 344 360 24 313 326 333 318 292 272 280 282 249 231 248 281 278 256 267 200 194 178 108 114 129 53 347 317 42 89 102 127 294 5 23 69 78 327 21 357 334 346 333 316 306 1 92 142 211 176 184 183 162 153 149 151 158 165 164 162 164 164 165 165 166
344 343 341 339 338 338 338 335 332 327 322 323 324 310 305 311 304 304 292 304 306 272 261 308 328 346 306 312 315 313 293 279 285 287 277 266 261 263 280 307 273 329 81 110 108 91 95 72 2 336 44 54 89 106 90 34 13 11 44 71 314 335 50 323 299 309 320 272 249 114 129 193 170 170 179 171 161 157 160 167 171 170 169 168 167 169 168 168
344 342 341 339 337 337 337 337 333 328 327 328 324 302 274 275 283 297 316 301 257 250 258 273 311 12 290 300 294 283 283 270 265 282 283 280 275 264 215 72 51 34 49 58 41 55 71 25 360 48 25 31 47 81 105 154 154 115 98 89 319 316 293 232 274 321 341 298 261 152 140 186 158 165 180 184 171 166 171 171 171 172 171 171 170 171 174 173
344 342 341 339 337 337 337 337 334 331 330 331 327 295 250 253 268 258 114 355 282 264 289 255 329 66 277 281 268 272 277 258 251 280 283 278 358 58 62 51 44 49 48 44 10 6 68 39 43 62 34 30 26 65 144 155 145 139 150 145 170 209 252 206 147 309 304 285 269 223 176 169 159 174 187 188 179 173 177 172 169 173 175 175 171 172 177 176
344 341 340 339 337 336 338 339 335 332 332 337 350 360 177 12 2 320 290 215 209 217 257 207 167 208 277 280 275 271 272 255 268 290 255 239 120 60 36 15 31 44 53 80 8 331 69 77 64 132 128 81 63 63 101 118 118 121 121 120 213 264 299 304 123 177 293 268 250 233 172 178 174 184 189 184 181 182 180 176 175 175 177 178 174 176 177 177
344 341 339 339 337 334 338 339 333 330 330 331 340 14 142 102 64 322 302 254 227 208 226 222 188 205 247 262 266 258 281 319 292 305 271 181 121 70 10 14 42 22 26 89 82 346 58 102 160 193 174 126 107 97 99 105 116 125 131 150 305 350 264 284 108 114 12 313 276 16 120 192 192 190 186 176 182 194 188 179 182 180 180 180 176 180 177 168
344 341 338 339 337 333 337 337 333 329 325 321 316 294 253 211 174 308 280 303 275 205 213 244 223 233 245 253 257 239 172 357 289 299 298 112 82 63 5 52 70 44 311 69 57 21 47 146 191 194 47 88 104 120 116 113 126 141 141 137 118 318 269 284 54 75 66 70 298 349 40 213 216 196 190 185 188 199 190 179 183 182 181 182 179 179 170 160
344 339 337 339 336 333 334 336 334 329 326 313 263 247 267 272 318 317 271 255 292 227 203 238 241 250 249 258 250 225 218 232 211 286 258 109 30 96 125 69 81 84 35 75 87 76 75 223 218 18 326 24 62 109 120 115 109 124 120 109 153 271 300 268 320 10 67 144 234 339 351 274 259 208 206 203 196 199 189 183 188 186 185 184 180 177 168 165
343 339 336 337 336 333 333 334 334 341 332 302 271 284 299 300 316 325 348 170 281 280 219 207 213 225 236 247 216 193 227 215 175 258 205 150 81 110 115 91 96 67 70 102 103 101 243 271 332 17 280 284 66 130 130 118 80 72 112 107 175 200 169 214 266 336 352 37 42 3 344 298 252 200 210 213 207 211 198 188 193 195 193 184 176 176 174 170
342 338 334 335 336 332 332 333 339 354 330 290 294 331 327 298 314 338 29 56 302 293 221 175 337 236 237 232 184 176 180 187 225 220 170 170 161 105 102 98 94 75 95 105 99 83 278 285 330 24 318 258 225 192 151 117 69 24 98 151 206 224 215 178 89 33 33 16 331 47 341 286 272 216 203 193 199 214 208 198 199 196 190 180 174 178 179 174
340 336 333 335 334 332 335 338 325 334 318 274 328 347 340 306 358 62 67 52 339 306 8 33 328 278 267 216 166 143 91 238 244 190 167 193 174 99 86 56 87 123 112 78 84 30 300 304 288 233 219 226 215 175 133 116 85 20 261 208 204 208 205 135 77 66 87 234 257 170 176 265 304 267 208 180 191 209 208 204 207 199 182 178 176 176 177 174
338 334 331 332 334 336 336 291 318 324 299 305 337 346 352 347 350 56 61 44 350 296 304 14 23 242 264 214 151 104 91 244 293 111 163 161 84 53 56 99 57 75 78 60 75 213 232 251 252 222 211 209 193 180 177 149 126 206 237 182 175 178 178 146 105 101 169 235 281 115 122 319 300 272 214 175 185 208 212 209 209 203 185 177 176 176 175 173
335 332 327 328 334 331 309 298 315 311 297 331 333 342 350 336 315 53 81 66 323 284 213 236 230 214 245 228 119 124 195 146 73 260 171 105 85 34 26 208 185 178 186 159 164 209 191 203 213 203 199 196 201 209 176 151 136 211 188 139 153 157 155 147 127 130 54 34 311 282 109 88 274 278 231 171 184 208 214 210 205 199 187 177 175 176 175 175
332 330 323 323 328 318 296 295 292 286 332 340 337 336 340 334 343 55 82 100 284 281 98 73 307 220 209 252 125 143 159 114 119 218 156 125 144 160 201 225 197 195 200 181 198 218 185 193 195 189 192 201 210 194 161 152 139 147 120 101 100 93 100 106 106 109 62 51 267 221 151 163 271 275 215 164 195 212 212 209 202 198 187 175 174 176 176 175
330 327 320 319 322 314 301 291 274 308 350 337 331 331 335 346 48 63 42 44 285 266 217 124 313 206 175 185 236 138 97 205 207 134 139 138 159 171 213 241 169 196 225 201 220 233 202 187 184 187 203 208 211 180 158 156 131 116 103 93 89 64 73 80 66 77 63 353 261 210 170 162 297 275 203 179 213 204 193 196 199 202 192 176 175 175 175 175
327 325 317 309 306 292 293 289 258 17 350 328 328 339 357 13 68 81 29 229 172 293 283 278 279 268 185 187 213 165 121 229 140 123 193 275 11 327 338 5 36 23 348 325 256 256 246 188 186 203 203 190 176 135 140 147 136 123 110 122 114 41 360 46 30 39 69 269 270 209 164 154 213 268 233 218 233 187 177 189 192 197 195 181 175 176 175 174
326 322 310 296 289 271 258 258 247 304 325 325 341 8 63 37 29 80 253 262 337 284 296 301 275 285 242 202 193 171 159 166 154 171 209 173 334 301 56 177 202 44 352 313 315 301 285 222 219 223 196 165 126 94 110 141 155 128 112 123 98 37 4 25 6 4 172 250 278 142 142 157 226 252 255 241 233 193 182 189 187 191 191 181 175 176 176 172
326 319 305 292 283 270 264 270 269 282 309 330 9 43 80 63 343 241 245 284 243 235 265 299 275 277 252 210 203 176 157 148 168 203 225 162 168 278 276 233 207 119 231 273 354 346 334 300 282 44 19 114 115 118 127 164 190 160 137 134 109 93 73 355 261 292 245 265 307 123 148 207 274 265 258 237 222 200 186 186 183 184 186 185 178 173 175 175
328 318 305 292 280 275 273 272 264 269 305 340 48 56 56 50 262 248 265 249 233 245 260 275 288 298 290 201 210 173 126 155 187 183 207 169 140 269 292 265 229 178 138 19 360 40 65 325 332 55 336 59 110 153 159 156 163 173 164 135 130 145 144 180 201 197 227 267 349 100 158 215 254 273 261 234 214 189 177 182 179 180 185 182 175 171 173 176
332 320 306 293 282 282 276 264 256 250 280 12 68 65 70 229 259 252 246 244 246 288 291 313 337 333 330 326 237 175 109 193 209 182 181 180 176 207 229 242 217 169 118 83 275 89 98 241 257 244 173 120 116 209 147 119 107 283 132 104 141 185 147 143 182 171 172 124 53 165 210 225 213 287 315 325 157 167 169 167 167 178 180 169 170 174 173 177
338 327 309 291 284 291 279 239 206 183 178 79 65 62 166 214 224 171 220 253 215 252 332 355 17 20 335 331 316 360 74 180 203 183 186 189 194 202 220 235 202 165 157 141 215 121 91 261 266 262 154 154 181 199 159 131 135 9 70 152 237 186 126 108 324 16 81 82 211 220 290 303 319 338 346 33 83 139 172 169 174 179 167 162 174 177 175 178
341 334 305 278 275 285 268 187 163 157 138 79 93 205 218 225 198 171 214 241 89 99 68 26 12 29 350 333 333 350 26 336 331 37 247 252 240 224 239 251 198 180 181 138 100 202 131 275 285 106 167 211 188 162 154 147 133 116 180 203 211 42 72 97 79 5 36 77 290 334 324 314 4 4 327 10 76 144 165 156 175 181 169 171 180 179 181 182
339 333 298 283 269 254 209 163 153 141 83 72 116 239 225 230 240 210 201 137 92 80 77 94 194 111 49 346 309 339 23 16 351 354 354 21 316 261 266 278 223 203 189 141 127 230 122 21 296 276 200 265 71 100 88 290 146 145 186 177 133 67 25 24 99 36 25 70 295 323 334 318 360 251 299 329 203 209 202 86 106 159 171 178 184 183 186 184
340 348 326 328 287 208 163 152 145 101 58 82 249 253 225 226 261 253 197 133 103 94 97 199 197 119 172 204 271 330 26 85 277 321 78 75 304 275 311 338 328 306 201 153 150 222 130 97 297 294 322 12 28 75 143 275 294 324 25 113 69 122 155 172 109 151 141 128 253 321 5 333 244 237 243 251 253 243 228 114 112 147 162 162 171 183 187 187
347 54 329 334 184 167 147 136 114 52 80 159 206 229 265 259 252 260 225 143 131 145 148 191 186 197 239 231 289 323 22 82 182 326 145 141 240 282 338 3 325 321 222 163 152 118 118 105 215 296 344 41 8 227 176 190 180 357 307 300 340 30 108 93 59 122 120 128 178 79 31 284 258 235 220 238 253 243 204 184 169 174 170 159 162 175 183 188
20 54 309 243 156 152 136 113 52 84 144 247 235 237 283 249 207 277 271 115 123 174 143 153 173 194 227 272 8 288 40 36 10 16 5 329 309 291 326 341 319 317 44 135 62 65 129 110 144 278 350 58 257 252 186 175 158 158 216 212 166 123 94 87 352 314 79 124 168 135 109 275 266 257 246 241 245 231 184 178 187 201 193 189 186 179 176 177
76 43 290 171 156 150 121 72 295 171 176 249 231 241 281 259 193 237 248 71 70 192 124 149 182 187 203 212 191 149 72 55 2 37 25 292 298 230 290 322 322 319 91 95 287 215 151 106 97 236 243 213 248 263 183 190 173 142 142 155 130 116 111 122 176 266 36 63 127 110 93 272 276 312 307 269 261 222 158 149 145 271 217 219 222 204 193 181
107 316 261 168 164 156 65 40 302 327 242 250 261 264 276 262 217 207 159 95 77 219 125 194 193 141 157 217 147 81 75 73 342 307 223 273 281 248 286 321 339 27 70 34 288 297 101 75 57 309 292 295 298 339 24 16 61 86 12 351 108 134 132 133 164 176 86 27 353 67 47 279 285 331 341 305 300 338 185 158 158 225 228 223 231 233 227 198
207 277 243 174 181 194 26 170 264 316 268 293 317 302 294 263 187 145 124 148 204 163 140 233 213 110 153 205 97 128 173 120 316 290 292 283 277 278 306 333 353 25 70 159 238 330 25 24 67 52 356 352 351 356 4 6 24 52 305 323 9 99 100 93 62 69 61 328 147 102 59 266 279 332 344 335 39 52 288 253 187 212 231 227 234 258 303 40
318 317 338 184 197 229 327 178 177 229 281 319 320 300 306 307 62 68 70 42 342 350 117 339 352 105 118 81 82 88 193 146 164 289 305 291 275 293 332 351 360 18 40 21 8 68 91 83 100 106 95 65 9 328 328 335 346 334 322 360 32 43 76 100 67 64 62 324 69 111 187 267 308 339 340 331 338 172 264 284 275 243 239 239 261 24 37 73
60 339 339 329 218 252 260 228 126 193 271 318 301 294 318 341 343 34 56 33 347 344 27 35 359 47 61 50 71 12 318 192 142 218 264 304 285 284 333 356 2 18 30 17 10 56 99 53 88 129 148 169 190 223 235 183 98 56 13 44 62 59 73 95 89 97 145 95 50 130 184 103 348 339 336 330 320 237 229 272 299 287 285 320 71 92 110 139
63 181 10 19 330 340 318 315 13 275 250 195 217 310 352 354 337 24 36 20 332 351 7 23 19 50 79 46 76 21 319 330 339 172 168 283 274 290 332 353 1 16 32 16 3 60 88 24 25 113 137 185 207 230 221 103 108 146 110 75 84 86 80 84 95 143 139 100 61 329 143 85 356 331 337 336 328 307 240 252 263 259 277 324 103 116 131 151
55 254 180 128 171 272 306 298 312 332 327 355 116 1 9 12 13 14 346 314 23 31 33 5 351 9 208 89 103 187 305 2 342 329 132 294 295 336 345 332 336 12 43 17 354 78 102 35 307 51 23 3 11 46 101 97 75 61 68 66 71 76 76 87 120 132 118 119 126 104 83 75 4 339 341 341 338 331 301 288 272 253 271 97 121 129 151 179
25 3 319 35 100 213 225 257 298 32 19 25 43 16 28 47 28 331 314 335 358 24 49 18 320 314 312 53 106 157 197 133 309 294 231 303 331 13 6 316 313 358 51 36 355 76 105 338 284 77 47 19 29 59 89 90 77 57 43 41 54 66 70 78 87 91 106 109 110 98 81 66 23 356 340 333 348 8 16 7 355 342 338 334 182 178 202 233
9 288 322 1 353 277 263 300 59 79 28 21 47 357 3 62 50 285 297 41 59 16 39 17 306 298 288 110 118 183 217 179 180 221 191 119 345 265 191 228 276 339 21 37 344 22 85 233 271 81 66 9 21 72 86 85 82 65 35 18 26 46 49 46 35 21 51 57 44 72 81 25 349 355 336 326 5 31 30 20 11 1 348 321 280 265 230 232
325 256 310 28 313 306 311 341 66 91 26 7 100 282 346 353 281 278 299 237 149 129 106 285 294 292 277 201 217 242 244 210 199 220 195 162 202 215 182 180 180 342 359 26 348 4 68 124 315 62 76 320 312 108 110 93 76 58 32 10 7 30 47 43 33 25 24 24 19 37 46 343 318 332 335 344 22 36 30 18 12 5 3 357 329 307 290 263
355 323 360 104 244 314 343 360 40 75 66 312 217 149 59 296 290 16 94 305 180 144 151 297 296 290 281 264 250 238 231 219 221 235 216 199 243 250 204 109 80 85 203 114 52 3 73 94 27 70 95 270 273 173 145 98 60 40 10 3 360 22 69 59 38 27 17 15 53 43 350 285 293 326 347 2 26 37 30 18 9 0 5 15 9 353 341 329